Regional Weather Roundup
Issued by NWS

Home | Current Version | Previous Version | Graphics & Text | Print | Product List | Glossary Off
Versions: 1 2 3 4 5 6 7 8 9 10 11 12 13 14 15 16 17 18 19 20 21 22 23 24 25 26 27 28 29 30 31 32 33 34 35 36 37 38 39 40 41 42 43 44 45 46 47 48 49 50

000
ASUS43 KLSX 230407
RWRMO

WEATHER SUMMARY FOR MISSOURI
NATIONAL WEATHER SERVICE SPRINGFIELD MO
1000 PM CST SUN JAN 22 2017

NOTE: "FAIR" INDICATES FEW OR NO CLOUDS BELOW 12,000 FEET WITH NO
       SIGNIFICANT WEATHER AND/OR OBSTRUCTIONS TO VISIBILITY.
       CURRENT SKY AND/OR WEATHER CONDITIONS ARE NOT AVAILABLE FOR
       CHILLICOTHE AND FARMINGTON.

MOZ001>031-035>038-043-044-053-054-230500-
...NORTHERN AND WESTERN MISSOURI...

CITY           SKY/WX    TMP DP  RH WIND       PRES   REMARKS
KANSAS CTY INT CLOUDY    37  32  82 NW10      29.86R WCI  30
KANSAS C DTWN  CLOUDY    40  34  79 NW9       29.87R
LEE`S SUMMIT   CLOUDY    38  34  85 NW8       29.86R
ST JOSEPH      MOCLDY    34  33  96 NW10      29.88R WCI  26
CHILLICOTHE      N/A     39  36  89 NW6       29.85R
KIRKSVILLE     CLOUDY    38  36  92 N9        29.82R

$$
MOZ066>068-077>081-088>096-101>105-230500-
...SOUTHWEST MISSOURI...

CITY           SKY/WX    TMP DP  RH WIND       PRES   REMARKS
SPRINGFIELD    CLOUDY    37  34  89 NW13      29.82R WCI  29
JOPLIN         CLOUDY    37  35  92 N9        29.89R
BRANSON        LGT RAIN  36  36 100 NW17G23   29.82R WCI  25

$$
MOZ032>034-039>042-045>050-055>058-069>072-230500-
...CENTRAL MISSOURI...

CITY           SKY/WX    TMP DP  RH WIND       PRES   REMARKS
COLUMBIA       CLOUDY    41  36  82 N13       29.79R
JEFFERSON CITY CLOUDY    42  35  76 N8        29.81R
ROLLA          CLOUDY    39  36  89 NW13      29.75R
SEDALIA        CLOUDY    40  37  89 NW13      29.85R
WHITEMAN AFB   CLOUDY    39  39 100 NW12      29.84R
WARRENSBURG    CLOUDY    37  34  87 NW8       29.85S
OSAGE BEACH    CLOUDY    39  36  89 NW6       29.81R

$$
MOZ051-052-059>065-230500-
...EAST CENTRAL MISSOURI...

CITY           SKY/WX    TMP DP  RH WIND       PRES   REMARKS
ST LOUIS INTL  CLOUDY    43  36  76 NW13      29.72S
SPIRIT OF STL  CLOUDY    42  37  82 NW12      29.74R
ST CHARLES     CLOUDY    42  37  82 NW12      29.74R

$$
MOZ072>076-082>087-097>100-106>115-230500-
...SOUTH CENTRAL AND SOUTHEAST MISSOURI...

CITY           SKY/WX    TMP DP  RH WIND       PRES   REMARKS
CAPE GIRARDEAU CLOUDY    50  43  77 N16G32    29.56R
FARMINGTON     CLOUDY    43  38  82 NW17G25   29.67R
POPLAR BLUFF   CLEAR     51  42  71 N18G25    29.57R
WEST PLAINS    CLOUDY    41  37  86 NW18G26   29.71R

$$



USA.gov is the U.S. government's official web portal to all federal, state and local government web resources and services.